Location: Peterborough
(44.3091°N, 78.3197°W)
Time: 18:28:41
(UTC-04:00)

Vanguard 3 - Pass Details

Date: 28 March 2023
Orbit: 507 x 3246 km, 33.4° (Epoch: 05 June)

Event Time Altitude Azimuth Distance (km) Brightness Sun altitude
Exits shadow 01:04:13 18° 111° (ESE) 5,455 11.1 -42.7°
Drops below altitude 10° 01:10:26 10° 94° (E) 6,184 11.5 -42.8°
Sets 01:17:03 0° 81° (E) 7,142 12.0 -42.8°
